| time (UTC) | temp F | wind direction | speed MPH | gust MPH | rain 1hr in | rain 24hr in | rain mn in | humidity % | barometer mb |
| 20260906172005 | 82 | 202 | 4.0 | 14.0 | 0.00 | 0.00 | 0.00 | 80 | 1014.9 |
| 20260906171506 | 82 | 157 | 7.0 | 12.0 | 0.00 | 0.00 | 0.00 | 80 | 1015.0 |
| 20260906171005 | 82 | 136 | 5.0 | 12.0 | 0.00 | 0.00 | 0.00 | 80 | 1015.0 |
| 20260906170507 | 82 | 157 | 4.0 | 12.0 | 0.00 | 0.00 | 0.00 | 80 | 1015.0 |
| 20260906170005 | 82 | 131 | 5.0 | 15.0 | 0.00 | 0.00 | 0.00 | 79 | 1015.2 |
| 20260906165505 | 82 | 152 | 7.0 | 15.0 | 0.00 | 0.00 | 0.00 | 78 | 1015.3 |
| 20260906165008 | 83 | 180 | 6.0 | 11.0 | 0.00 | 0.00 | 0.00 | 79 | 1015.3 |
| 20260906164503 | 82 | 173 | 6.0 | 12.0 | 0.00 | 0.00 | 0.00 | 79 | 1015.5 |
| 20260906164002 | 82 | 144 | 7.0 | 12.0 | 0.00 | 0.00 | 0.00 | 79 | 1015.5 |
| 20260906163502 | 82 | 167 | 5.0 | 13.0 | 0.00 | 0.00 | 0.00 | 80 | 1015.5 |
| 20260906163001 | 82 | 162 | 5.0 | 13.0 | 0.00 | 0.00 | 0.00 | 80 | 1015.6 |
| 20260906162600 | 82 | 130 | 6.0 | 14.0 | 0.00 | 0.00 | 0.00 | 80 | 1015.5 |
| 20260906162059 | 81 | 161 | 7.0 | 14.0 | 0.00 | 0.00 | 0.00 | 81 | 1015.5 |
| 20260906161600 | 81 | 42 | 6.0 | 16.0 | 0.00 | 0.00 | 0.00 | 82 | 1015.5 |
| 20260906161058 | 81 | 144 | 8.0 | 16.0 | 0.00 | 0.00 | 0.00 | 81 | 1015.5 |
| 20260906160559 | 81 | 171 | 7.0 | 15.0 | 0.00 | 0.00 | 0.00 | 81 | 1015.5 |
| 20260906160059 | 81 | 161 | 4.0 | 12.0 | 0.00 | 0.00 | 0.00 | 81 | 1015.4 |
| 20260906155558 | 81 | 98 | 7.0 | 12.0 | 0.00 | 0.00 | 0.00 | 80 | 1015.5 |
| 20260906155057 | 81 | 199 | 4.0 | 12.0 | 0.00 | 0.00 | 0.00 | 82 | 1015.5 |
| 20260906154557 | 81 | 73 | 5.0 | 12.0 | 0.00 | 0.00 | 0.00 | 82 | 1015.5 |
| 20260906154056 | 80 | 118 | 5.0 | 12.0 | 0.00 | 0.00 | 0.00 | 82 | 1015.4 |
| 20260906153556 | 80 | 139 | 4.0 | 14.0 | 0.00 | 0.00 | 0.00 | 83 | 1015.5 |
| 20260906153112 | 80 | 101 | 4.0 | 14.0 | 0.00 | 0.00 | 0.00 | 83 | 1015.5 |
| 20260906152552 | 79 | 261 | 3.0 | 11.0 | 0.00 | 0.00 | 0.00 | 84 | 1015.4 |
| 20260906152051 | 78 | 119 | 4.0 | 12.0 | 0.00 | 0.00 | 0.00 | 86 | 1015.6 |
| 20260906151559 | 78 | 92 | 4.0 | 12.0 | 0.00 | 0.00 | 0.00 | 86 | 1015.5 |
| 20260906151049 | 77 | 98 | 3.0 | 11.0 | 0.00 | 0.00 | 0.00 | 86 | 1015.5 |
| 20260906150548 | 77 | 168 | 5.0 | 11.0 | 0.00 | 0.00 | 0.00 | 86 | 1015.6 |
| 20260906150048 | 77 | 69 | 4.0 | 11.0 | 0.00 | 0.00 | 0.00 | 87 | 1015.6 |
| 20260906145546 | 76 | 82 | 2.0 | 11.0 | 0.00 | 0.00 | 0.00 | 88 | 1015.6 |
| 20260906145045 | 76 | 132 | 6.0 | 12.0 | 0.00 | 0.00 | 0.00 | 88 | 1015.6 |
| 20260906144545 | 76 | 148 | 4.0 | 9.0 | 0.00 | 0.00 | 0.00 | 88 | 1015.6 |
| 20260906144043 | 75 | 148 | 4.0 | 13.0 | 0.00 | 0.00 | 0.00 | 88 | 1015.6 |
| 20260906143541 | 75 | 133 | 5.0 | 12.0 | 0.00 | 0.00 | 0.00 | 88 | 1015.8 |
| 20260906143046 | 75 | 132 | 4.0 | 11.0 | 0.00 | 0.00 | 0.00 | 89 | 1015.9 |
| 20260906142539 | 75 | 130 | 5.0 | 11.0 | 0.00 | 0.00 | 0.00 | 89 | 1015.8 |
| 20260906142038 | 75 | 153 | 3.0 | 11.0 | 0.00 | 0.00 | 0.00 | 89 | 1015.9 |
| 20260906141538 | 75 | 146 | 5.0 | 11.0 | 0.00 | 0.00 | 0.00 | 89 | 1015.8 |
| 20260906141034 | 75 | 149 | 2.0 | 9.0 | 0.00 | 0.00 | 0.00 | 89 | 1015.8 |
| 20260906140535 | 75 | 140 | 4.0 | 10.0 | 0.00 | 0.00 | 0.00 | 89 | 1016.0 |
| 20260906140035 | 75 | 124 | 2.0 | 10.0 | 0.00 | 0.00 | 0.00 | 89 | 1016.0 |
| 20260906135533 | 75 | 98 | 3.0 | 9.0 | 0.00 | 0.00 | 0.00 | 89 | 1016.0 |
| 20260906135031 | 75 | 103 | 3.0 | 8.0 | 0.00 | 0.00 | 0.00 | 89 | 1016.0 |
| 20260906134529 | 75 | 63 | 3.0 | 8.0 | 0.00 | 0.00 | 0.00 | 90 | 1016.1 |
| 20260906134028 | 74 | 119 | 3.0 | 8.0 | 0.00 | 0.00 | 0.00 | 90 | 1016.1 |
| 20260906133530 | 74 | 129 | 3.0 | 12.0 | 0.00 | 0.00 | 0.00 | 91 | 1016.1 |
| 20260906133028 | 74 | 184 | 2.0 | 12.0 | 0.00 | 0.00 | 0.00 | 91 | 1016.1 |
| 20260906132524 | 73 | 167 | 3.0 | 9.0 | 0.00 | 0.00 | 0.00 | 91 | 1016.0 |
| 20260906132024 | 73 | 150 | 4.0 | 11.0 | 0.00 | 0.00 | 0.00 | 92 | 1016.1 |
| 20260906131524 | 73 | 160 | 4.0 | 11.0 | 0.00 | 0.00 | 0.00 | 92 | 1016.0 |
| 20260906131020 | 72 | 144 | 2.0 | 9.0 | 0.00 | 0.00 | 0.00 | 92 | 1016.0 |
| 20260906130519 | 72 | 142 | 3.0 | 8.0 | 0.00 | 0.00 | 0.00 | 92 | 1016.0 |
| 20260906130018 | 72 | 150 | 3.0 | 7.0 | 0.00 | 0.00 | 0.00 | 93 | 1016.0 |
| 20260906125518 | 71 | 165 | 1.0 | 6.0 | 0.00 | 0.00 | 0.00 | 93 | 1015.8 |
| 20260906125020 | 71 | 141 | 2.0 | 7.0 | 0.00 | 0.00 | 0.00 | 93 | 1015.7 |
| 20260906124515 | 71 | 144 | 3.0 | 7.0 | 0.00 | 0.00 | 0.00 | 93 | 1015.7 |
| 20260906124016 | 71 | 146 | 2.0 | 10.0 | 0.00 | 0.00 | 0.00 | 93 | 1015.5 |
| 20260906123514 | 71 | 154 | 5.0 | 10.0 | 0.00 | 0.00 | 0.00 | 93 | 1015.6 |
| 20260906123029 | 71 | 180 | 1.0 | 8.0 | 0.00 | 0.00 | 0.00 | 93 | 1015.5 |
| 20260906122514 | 70 | 90 | 2.0 | 6.0 | 0.00 | 0.00 | 0.00 | 93 | 1015.5 |
| 20260906122013 | 70 | 118 | 1.0 | 6.0 | 0.00 | 0.00 | 0.00 | 93 | 1015.6 |
| 20260906121514 | 70 | 101 | 2.0 | 4.0 | 0.00 | 0.00 | 0.00 | 93 | 1015.6 |
| 20260906121012 | 70 | 98 | 1.0 | 4.0 | 0.00 | 0.00 | 0.00 | 93 | 1015.6 |
| 20260906120513 | 70 | 119 | 1.0 | 7.0 | 0.00 | 0.00 | 0.00 | 93 | 1015.6 |
| 20260906120011 | 70 | 138 | 2.0 | 7.0 | 0.00 | 0.00 | 0.00 | 93 | 1015.6 |
| 20260906115514 | 70 | 166 | 3.0 | 7.0 | 0.00 | 0.00 | 0.00 | 93 | 1015.6 |
| 20260906115012 | 70 | 128 | 1.0 | 7.0 | 0.00 | 0.00 | 0.00 | 93 | 1015.7 |
| 20260906114509 | 70 | 155 | 2.0 | 5.0 | 0.00 | 0.00 | 0.00 | 93 | 1015.7 |
| 20260906114009 | 70 | 140 | 1.0 | 6.0 | 0.00 | 0.00 | 0.00 | 93 | 1015.8 |
| 20260906113509 | 70 | 118 | 2.0 | 5.0 | 0.00 | 0.00 | 0.00 | 93 | 1015.6 |
| 20260906113009 | 70 | 154 | 1.0 | 6.0 | 0.00 | 0.00 | 0.00 | 92 | 1015.6 |
| 20260906112509 | 70 | 155 | 1.0 | 6.0 | 0.00 | 0.00 | 0.00 | 92 | 1015.5 |
| 20260906112009 | 70 | 150 | 2.0 | 5.0 | 0.00 | 0.00 | 0.00 | 92 | 1015.4 |
| 20260906111507 | 70 | 148 | 2.0 | 7.0 | 0.00 | 0.00 | 0.00 | 92 | 1015.4 |
| 20260906111008 | 70 | 134 | 4.0 | 9.0 | 0.00 | 0.00 | 0.00 | 92 | 1015.6 |
| 20260906110508 | 70 | 130 | 3.0 | 9.0 | 0.00 | 0.00 | 0.00 | 92 | 1015.7 |
| 20260906110006 | 70 | 149 | 2.0 | 8.0 | 0.00 | 0.00 | 0.00 | 92 | 1015.6 |
| 20260906105507 | 70 | 148 | 3.0 | 8.0 | 0.00 | 0.00 | 0.00 | 92 | 1015.5 |
| 20260906105007 | 70 | 152 | 3.0 | 9.0 | 0.00 | 0.00 | 0.00 | 92 | 1015.5 |
| 20260906104505 | 70 | 140 | 3.0 | 9.0 | 0.00 | 0.00 | 0.00 | 92 | 1015.4 |
| 20260906104006 | 70 | 134 | 3.0 | 9.0 | 0.00 | 0.00 | 0.00 | 92 | 1015.4 |
| 20260906103505 | 70 | 134 | 2.0 | 7.0 | 0.00 | 0.00 | 0.00 | 92 | 1015.3 |
| 20260906103005 | 70 | 148 | 2.0 | 7.0 | 0.00 | 0.00 | 0.00 | 92 | 1015.3 |
| 20260906102505 | 70 | 144 | 3.0 | 7.0 | 0.00 | 0.00 | 0.00 | 92 | 1015.3 |
| 20260906102005 | 70 | 147 | 3.0 | 7.0 | 0.00 | 0.00 | 0.00 | 92 | 1015.4 |
| 20260906101512 | 70 | 142 | 2.0 | 6.0 | 0.00 | 0.00 | 0.00 | 92 | 1015.3 |
| 20260906101005 | 70 | 139 | 1.0 | 5.0 | 0.00 | 0.00 | 0.00 | 92 | 1015.4 |
| 20260906100508 | 70 | 162 | 0.0 | 3.0 | 0.00 | 0.00 | 0.00 | 92 | 1015.4 |
| 20260906100005 | 70 | 148 | 0.0 | 5.0 | 0.00 | 0.00 | 0.00 | 92 | 1015.4 |
| 20260906095504 | 70 | 148 | 1.0 | 4.0 | 0.00 | 0.00 | 0.00 | 92 | 1015.2 |
| 20260906095004 | 70 | 144 | 1.0 | 5.0 | 0.00 | 0.00 | 0.00 | 92 | 1015.2 |
| 20260906094503 | 70 | 148 | 1.0 | 5.0 | 0.00 | 0.00 | 0.00 | 92 | 1015.3 |
| 20260906094002 | 70 | 101 | 1.0 | 3.0 | 0.00 | 0.00 | 0.00 | 92 | 1015.3 |
| 20260906093506 | 70 | 94 | 1.0 | 3.0 | 0.00 | 0.00 | 0.00 | 92 | 1015.4 |
| 20260906093002 | 70 | 107 | 1.0 | 4.0 | 0.00 | 0.00 | 0.00 | 92 | 1015.3 |
| 20260906092503 | 70 | 107 | 0.0 | 4.0 | 0.00 | 0.00 | 0.00 | 92 | 1015.3 |
| 20260906092002 | 70 | 109 | 1.0 | 4.0 | 0.00 | 0.00 | 0.00 | 92 | 1015.3 |
| 20260906091502 | 70 | 60 | 1.0 | 3.0 | 0.00 | 0.00 | 0.00 | 92 | 1015.3 |
| 20260906091002 | 70 | 82 | 1.0 | 6.0 | 0.00 | 0.00 | 0.00 | 92 | 1015.5 |
| 20260906090501 | 70 | 82 | 2.0 | 6.0 | 0.00 | 0.00 | 0.00 | 92 | 1015.5 |
| 20260906090003 | 70 | 111 | 2.0 | 4.0 | 0.00 | 0.00 | 0.00 | 92 | 1015.4 |
| 20260906085502 | 70 | 94 | 2.0 | 4.0 | 0.00 | 0.00 | 0.00 | 91 | 1015.4 |
| 20260906085100 | 70 | 64 | 1.0 | 3.0 | 0.00 | 0.00 | 0.00 | 91 | 1015.4 |
| 20260906084605 | 71 | 76 | 1.0 | 3.0 | 0.00 | 0.00 | 0.00 | 90 | 1015.4 |
| 20260906084057 | 71 | 51 | 1.0 | 3.0 | 0.00 | 0.00 | 0.00 | 90 | 1015.3 |
| 20260906083557 | 71 | 150 | 0.0 | 5.0 | 0.00 | 0.00 | 0.00 | 90 | 1015.2 |
| 20260906083057 | 71 | 150 | 1.0 | 5.0 | 0.00 | 0.00 | 0.00 | 89 | 1015.1 |
| 20260906082556 | 71 | 115 | 1.0 | 4.0 | 0.00 | 0.00 | 0.00 | 89 | 1015.1 |
| 20260906082056 | 71 | 113 | 1.0 | 4.0 | 0.00 | 0.00 | 0.00 | 89 | 1015.1 |
| 20260906081558 | 71 | 149 | 1.0 | 4.0 | 0.00 | 0.00 | 0.00 | 89 | 1015.1 |
| 20260906081055 | 71 | 53 | 1.0 | 4.0 | 0.00 | 0.00 | 0.00 | 89 | 1015.1 |
| 20260906080555 | 72 | 138 | 1.0 | 3.0 | 0.00 | 0.00 | 0.00 | 89 | 1015.0 |
| 20260906080112 | 72 | 152 | 1.0 | 7.0 | 0.00 | 0.00 | 0.00 | 88 | 1015.1 |
| 20260906075554 | 72 | 149 | 3.0 | 7.0 | 0.00 | 0.00 | 0.00 | 88 | 1015.0 |
| 20260906075054 | 72 | 153 | 1.0 | 5.0 | 0.00 | 0.00 | 0.00 | 88 | 1015.0 |
| 20260906074606 | 72 | 135 | 1.0 | 4.0 | 0.00 | 0.00 | 0.00 | 88 | 1014.9 |
| 20260906074053 | 72 | 128 | 2.0 | 6.0 | 0.00 | 0.00 | 0.00 | 88 | 1014.9 |
| 20260906073552 | 72 | 154 | 1.0 | 7.0 | 0.00 | 0.00 | 0.00 | 87 | 1015.0 |
| 20260906073105 | 72 | 148 | 2.0 | 7.0 | 0.00 | 0.00 | 0.00 | 87 | 1015.0 |
| 20260906072551 | 73 | 143 | 1.0 | 7.0 | 0.00 | 0.00 | 0.00 | 87 | 1015.1 |
| 20260906072049 | 73 | 161 | 2.0 | 7.0 | 0.00 | 0.00 | 0.00 | 87 | 1015.1 |
| 20260906071549 | 73 | 173 | 2.0 | 7.0 | 0.00 | 0.00 | 0.00 | 87 | 1015.1 |
| 20260906071049 | 73 | 143 | 2.0 | 6.0 | 0.00 | 0.00 | 0.00 | 86 | 1015.2 |
| 20260906070549 | 73 | 153 | 2.0 | 7.0 | 0.00 | 0.00 | 0.00 | 86 | 1015.2 |
| 20260906070049 | 73 | 161 | 3.0 | 9.0 | 0.00 | 0.00 | 0.00 | 86 | 1015.1 |
| 20260906065548 | 73 | 185 | 4.0 | 9.0 | 0.00 | 0.00 | 0.00 | 86 | 1015.0 |
| 20260906065047 | 73 | 150 | 2.0 | 9.0 | 0.00 | 0.00 | 0.00 | 86 | 1014.9 |
| 20260906064547 | 74 | 181 | 3.0 | 9.0 | 0.00 | 0.00 | 0.00 | 86 | 1015.0 |
| 20260906064046 | 74 | 122 | 4.0 | 10.0 | 0.00 | 0.00 | 0.00 | 86 | 1015.1 |
| 20260906063545 | 74 | 151 | 4.0 | 10.0 | 0.00 | 0.00 | 0.00 | 85 | 1015.1 |
| 20260906063049 | 74 | 155 | 2.0 | 12.0 | 0.00 | 0.00 | 0.00 | 85 | 1015.1 |
| 20260906062545 | 74 | 154 | 3.0 | 10.0 | 0.00 | 0.00 | 0.00 | 85 | 1015.2 |
| 20260906062045 | 74 | 166 | 3.0 | 10.0 | 0.00 | 0.00 | 0.00 | 85 | 1015.1 |
| 20260906061545 | 74 | 185 | 3.0 | 8.0 | 0.00 | 0.00 | 0.00 | 86 | 1015.1 |
| 20260906061047 | 74 | 159 | 3.0 | 9.0 | 0.00 | 0.00 | 0.00 | 86 | 1015.1 |
| 20260906060544 | 74 | 127 | 4.0 | 9.0 | 0.00 | 0.00 | 0.00 | 86 | 1015.1 |
| 20260906060043 | 74 | 95 | 3.0 | 9.0 | 0.00 | 0.00 | 0.00 | 86 | 1015.0 |
| 20260906055543 | 74 | 150 | 2.0 | 9.0 | 0.00 | 0.00 | 0.00 | 86 | 1015.1 |
| 20260906055044 | 74 | 138 | 3.0 | 10.0 | 0.00 | 0.00 | 0.00 | 86 | 1015.3 |
| 20260906054544 | 74 | 94 | 2.0 | 10.0 | 0.00 | 0.00 | 0.00 | 86 | 1015.2 |
| 20260906054042 | 74 | 95 | 2.0 | 9.0 | 0.00 | 0.00 | 0.00 | 87 | 1015.1 |
| 20260906053541 | 73 | 117 | 4.0 | 9.0 | 0.00 | 0.00 | 0.00 | 87 | 1015.1 |
| 20260906053041 | 73 | 93 | 3.0 | 7.0 | 0.00 | 0.00 | 0.00 | 87 | 1015.1 |
| 20260906052541 | 73 | 82 | 3.0 | 8.0 | 0.00 | 0.00 | 0.00 | 87 | 1015.1 |
| 20260906052040 | 73 | 120 | 3.0 | 8.0 | 0.00 | 0.00 | 0.00 | 87 | 1015.2 |
| 20260906051553 | 74 | 104 | 2.0 | 6.0 | 0.00 | 0.00 | 0.00 | 87 | 1015.3 |
| 20260906051038 | 74 | 85 | 2.0 | 7.0 | 0.00 | 0.00 | 0.00 | 87 | 1015.4 |
| 20260906050537 | 74 | 60 | 3.0 | 8.0 | 0.00 | 0.00 | 0.00 | 87 | 1015.3 |
| 20260906050041 | 74 | 146 | 2.0 | 8.0 | 0.00 | 0.00 | 0.00 | 86 | 1015.4 |
| 20260906045537 | 74 | 96 | 2.0 | 7.0 | 0.00 | 0.00 | 0.00 | 86 | 1015.5 |
| 20260906045036 | 74 | 115 | 1.0 | 8.0 | 0.00 | 0.00 | 0.00 | 86 | 1015.5 |
| 20260906044544 | 74 | 116 | 3.0 | 8.0 | 0.00 | 0.00 | 0.00 | 86 | 1015.4 |
| 20260906044037 | 74 | 82 | 2.0 | 7.0 | 0.00 | 0.00 | 0.00 | 86 | 1015.4 |
| 20260906043537 | 74 | 45 | 2.0 | 9.0 | 0.00 | 0.00 | 0.00 | 86 | 1015.3 |
| 20260906043046 | 75 | 149 | 3.0 | 9.0 | 0.00 | 0.00 | 0.00 | 86 | 1015.2 |
| 20260906042535 | 75 | 102 | 3.0 | 9.0 | 0.00 | 0.00 | 0.00 | 86 | 1015.4 |
| 20260906042035 | 75 | 98 | 4.0 | 10.0 | 0.00 | 0.00 | 0.00 | 86 | 1015.5 |
| 20260906041535 | 75 | 96 | 5.0 | 10.0 | 0.00 | 0.00 | 0.00 | 85 | 1015.5 |
| 20260906041036 | 75 | 121 | 3.0 | 7.0 | 0.00 | 0.00 | 0.00 | 85 | 1015.6 |
| 20260906040534 | 75 | 94 | 3.0 | 11.0 | 0.00 | 0.00 | 0.00 | 85 | 1015.6 |
| 20260906040037 | 75 | 81 | 4.0 | 11.0 | 0.00 | 0.00 | 0.00 | 85 | 1015.4 |
| 20260906035539 | 75 | 92 | 3.0 | 9.0 | 0.00 | 0.00 | 0.00 | 84 | 1015.3 |
| 20260906035034 | 76 | 94 | 4.0 | 9.0 | 0.00 | 0.00 | 0.00 | 84 | 1015.5 |
| 20260906034538 | 76 | 90 | 1.0 | 6.0 | 0.00 | 0.00 | 0.00 | 84 | 1015.6 |
| 20260906034034 | 76 | 78 | 1.0 | 6.0 | 0.00 | 0.00 | 0.00 | 84 | 1015.7 |
| 20260906033534 | 76 | 89 | 2.0 | 8.0 | 0.00 | 0.00 | 0.00 | 84 | 1015.8 |
| 20260906033033 | 76 | 49 | 2.0 | 8.0 | 0.00 | 0.00 | 0.00 | 84 | 1015.8 |
| 20260906032534 | 76 | 91 | 3.0 | 6.0 | 0.00 | 0.00 | 0.00 | 84 | 1015.7 |
| 20260906032033 | 76 | 98 | 1.0 | 6.0 | 0.00 | 0.00 | 0.00 | 84 | 1015.7 |
| 20260906031539 | 76 | 86 | 2.0 | 6.0 | 0.00 | 0.00 | 0.00 | 84 | 1015.8 |
| 20260906031033 | 76 | 63 | 2.0 | 6.0 | 0.00 | 0.00 | 0.00 | 84 | 1015.8 |
| 20260906030535 | 76 | 93 | 3.0 | 6.0 | 0.00 | 0.00 | 0.00 | 84 | 1016.0 |
| 20260906030033 | 76 | 67 | 1.0 | 6.0 | 0.00 | 0.00 | 0.00 | 84 | 1015.9 |
| 20260906025532 | 76 | 80 | 2.0 | 6.0 | 0.00 | 0.00 | 0.00 | 84 | 1015.9 |
| 20260906025032 | 76 | 95 | 1.0 | 4.0 | 0.00 | 0.00 | 0.00 | 83 | 1016.0 |
| 20260906024531 | 76 | 78 | 1.0 | 4.0 | 0.00 | 0.00 | 0.00 | 83 | 1015.9 |
| 20260906024031 | 76 | 123 | 0.0 | 5.0 | 0.00 | 0.00 | 0.00 | 83 | 1015.8 |
| 20260906023531 | 76 | 90 | 1.0 | 5.0 | 0.00 | 0.00 | 0.00 | 83 | 1015.6 |
| 20260906023031 | 76 | 142 | 2.0 | 6.0 | 0.00 | 0.00 | 0.00 | 83 | 1015.4 |
| 20260906022532 | 76 | 125 | 1.0 | 4.0 | 0.00 | 0.00 | 0.00 | 83 | 1015.3 |
| 20260906022030 | 76 | 123 | 1.0 | 4.0 | 0.00 | 0.00 | 0.00 | 82 | 1015.3 |
| 20260906021530 | 76 | 61 | 1.0 | 5.0 | 0.00 | 0.00 | 0.00 | 82 | 1015.3 |
| 20260906021030 | 77 | 109 | 2.0 | 5.0 | 0.00 | 0.00 | 0.00 | 81 | 1015.2 |
| 20260906020530 | 77 | 125 | 2.0 | 6.0 | 0.00 | 0.00 | 0.00 | 81 | 1015.1 |
| 20260906020030 | 77 | 153 | 2.0 | 5.0 | 0.00 | 0.00 | 0.00 | 81 | 1014.9 |
| 20260906015530 | 77 | 147 | 2.0 | 7.0 | 0.00 | 0.00 | 0.00 | 80 | 1014.8 |
| 20260906015029 | 77 | 85 | 3.0 | 8.0 | 0.00 | 0.00 | 0.00 | 80 | 1014.7 |
| 20260906014530 | 77 | 118 | 3.0 | 8.0 | 0.00 | 0.00 | 0.00 | 80 | 1014.7 |
| 20260906014028 | 78 | 111 | 3.0 | 7.0 | 0.00 | 0.00 | 0.00 | 79 | 1014.8 |
| 20260906013528 | 78 | 119 | 2.0 | 7.0 | 0.00 | 0.00 | 0.00 | 78 | 1014.8 |
| 20260906013042 | 78 | 102 | 3.0 | 8.0 | 0.00 | 0.00 | 0.00 | 78 | 1014.7 |
| 20260906012529 | 78 | 138 | 4.0 | 8.0 | 0.00 | 0.00 | 0.00 | 78 | 1014.8 |
| 20260906012028 | 78 | 89 | 2.0 | 6.0 | 0.00 | 0.00 | 0.00 | 77 | 1014.7 |
| 20260906011528 | 79 | 146 | 2.0 | 6.0 | 0.00 | 0.00 | 0.00 | 76 | 1014.6 |
| 20260906011030 | 79 | 113 | 3.0 | 6.0 | 0.00 | 0.00 | 0.00 | 76 | 1014.6 |
| 20260906010528 | 79 | 115 | 3.0 | 7.0 | 0.00 | 0.00 | 0.00 | 75 | 1014.6 |
| 20260906010030 | 79 | 125 | 2.0 | 7.0 | 0.00 | 0.00 | 0.00 | 75 | 1014.7 |
| 20260906005527 | 80 | 142 | 1.0 | 6.0 | 0.00 | 0.00 | 0.00 | 74 | 1014.8 |
| 20260906005027 | 80 | 101 | 1.0 | 6.0 | 0.00 | 0.00 | 0.00 | 73 | 1014.9 |
| 20260906004527 | 80 | 62 | 1.0 | 7.0 | 0.00 | 0.00 | 0.00 | 73 | 1014.9 |
| 20260906004026 | 80 | 137 | 1.0 | 10.0 | 0.00 | 0.00 | 0.00 | 72 | 1014.9 |
| 20260906003526 | 81 | 159 | 4.0 | 10.0 | 0.00 | 0.00 | 0.00 | 71 | 1014.7 |
| 20260906003027 | 81 | 136 | 4.0 | 10.0 | 0.00 | 0.00 | 0.00 | 71 | 1014.5 |
| 20260906002526 | 81 | 164 | 5.0 | 12.0 | 0.00 | 0.00 | 0.00 | 71 | 1014.6 |
| 20260906002026 | 81 | 143 | 5.0 | 12.0 | 0.00 | 0.00 | 0.00 | 70 | 1014.6 |
| 20260906001527 | 82 | 162 | 4.0 | 12.0 | 0.00 | 0.00 | 0.00 | 70 | 1014.6 |
| 20260906001026 | 82 | 139 | 4.0 | 10.0 | 0.00 | 0.00 | 0.00 | 69 | 1014.6 |
| 20260906000526 | 82 | 167 | 6.0 | 11.0 | 0.00 | 0.00 | 0.00 | 69 | 1014.6 |
| 20260906000026 | 83 | 165 | 4.0 | 15.0 | 0.00 | 0.00 | 0.00 | 68 | 1014.4 |
| 20260905235526 | 83 | 85 | 5.0 | 15.0 | 0.00 | 0.00 | 0.00 | 68 | 1014.1 |
| 20260905235026 | 83 | 141 | 6.0 | 14.0 | 0.00 | 0.00 | 0.00 | 68 | 1013.9 |
| 20260905234524 | 83 | 103 | 4.0 | 14.0 | 0.00 | 0.00 | 0.00 | 68 | 1013.7 |
| 20260905234025 | 84 | 64 | 5.0 | 14.0 | 0.00 | 0.00 | 0.00 | 67 | 1013.5 |
| 20260905233526 | 84 | 113 | 6.0 | 14.0 | 0.00 | 0.00 | 0.00 | 67 | 1013.5 |
| 20260905233026 | 84 | 53 | 6.0 | 12.0 | 0.00 | 0.00 | 0.00 | 67 | 1013.4 |
| 20260905232524 | 84 | 101 | 5.0 | 13.0 | 0.00 | 0.00 | 0.00 | 67 | 1013.5 |
| 20260905232024 | 84 | 115 | 5.0 | 13.0 | 0.00 | 0.00 | 0.00 | 67 | 1013.4 |
| 20260905231528 | 84 | 81 | 6.0 | 12.0 | 0.00 | 0.00 | 0.00 | 66 | 1013.3 |
| 20260905231025 | 84 | 62 | 5.0 | 12.0 | 0.00 | 0.00 | 0.00 | 66 | 1013.3 |
| 20260905230525 | 84 | 50 | 5.0 | 14.0 | 0.00 | 0.00 | 0.00 | 65 | 1013.3 |
| 20260905230026 | 84 | 78 | 7.0 | 14.0 | 0.00 | 0.00 | 0.00 | 65 | 1013.3 |
| 20260905225524 | 84 | 42 | 4.0 | 12.0 | 0.00 | 0.00 | 0.00 | 64 | 1013.2 |
| 20260905225023 | 84 | 93 | 5.0 | 12.0 | 0.00 | 0.00 | 0.00 | 64 | 1013.2 |
| 20260905224523 | 84 | 32 | 5.0 | 14.0 | 0.00 | 0.00 | 0.00 | 64 | 1013.2 |
| 20260905224023 | 85 | 56 | 3.0 | 14.0 | 0.00 | 0.00 | 0.00 | 63 | 1013.2 |
| 20260905223522 | 85 | 88 | 4.0 | 14.0 | 0.00 | 0.00 | 0.00 | 63 | 1013.1 |
| 20260905223022 | 85 | 88 | 5.0 | 13.0 | 0.00 | 0.00 | 0.00 | 63 | 1013.2 |
| 20260905222525 | 85 | 107 | 4.0 | 10.0 | 0.00 | 0.00 | 0.00 | 66 | 1013.1 |
| 20260905222022 | 84 | 115 | 5.0 | 14.0 | 0.00 | 0.00 | 0.00 | 66 | 1013.1 |
| 20260905221520 | 84 | 88 | 5.0 | 14.0 | 0.00 | 0.00 | 0.00 | 66 | 1013.1 |
| 20260905221020 | 84 | 83 | 8.0 | 14.0 | 0.00 | 0.00 | 0.00 | 66 | 1013.1 |
| 20260905220519 | 84 | 76 | 7.0 | 14.0 | 0.00 | 0.00 | 0.00 | 66 | 1013.2 |
| 20260905220018 | 84 | 51 | 7.0 | 15.0 | 0.00 | 0.00 | 0.00 | 66 | 1013.2 |
| 20260905215519 | 84 | 123 | 9.0 | 15.0 | 0.00 | 0.00 | 0.00 | 66 | 1013.3 |
| 20260905215018 | 84 | 91 | 7.0 | 14.0 | 0.00 | 0.00 | 0.00 | 66 | 1013.3 |
| 20260905214517 | 84 | 57 | 7.0 | 16.0 | 0.00 | 0.00 | 0.00 | 66 | 1013.4 |
| 20260905214016 | 84 | 97 | 8.0 | 14.0 | 0.00 | 0.00 | 0.00 | 66 | 1013.5 |
| 20260905213520 | 84 | 86 | 8.0 | 14.0 | 0.00 | 0.00 | 0.00 | 66 | 1013.5 |
| 20260905213018 | 84 | 96 | 8.0 | 16.0 | 0.00 | 0.00 | 0.00 | 65 | 1013.6 |
| 20260905212515 | 84 | 101 | 9.0 | 16.0 | 0.00 | 0.00 | 0.00 | 66 | 1013.7 |
| 20260905212014 | 84 | 150 | 8.0 | 16.0 | 0.00 | 0.00 | 0.00 | 66 | 1013.7 |
| 20260905211516 | 84 | 71 | 8.0 | 13.0 | 0.00 | 0.00 | 0.00 | 67 | 1013.8 |
| 20260905211014 | 83 | 84 | 5.0 | 14.0 | 0.00 | 0.00 | 0.00 | 67 | 1013.8 |
| 20260905210514 | 83 | 82 | 9.0 | 15.0 | 0.00 | 0.00 | 0.00 | 67 | 1013.9 |
| 20260905210017 | 83 | 81 | 6.0 | 18.0 | 0.00 | 0.00 | 0.00 | 68 | 1014.1 |
| 20260905205514 | 83 | 73 | 8.0 | 18.0 | 0.00 | 0.00 | 0.00 | 67 | 1014.0 |
| 20260905205015 | 83 | 61 | 7.0 | 15.0 | 0.00 | 0.00 | 0.00 | 67 | 1014.0 |
| 20260905204512 | 82 | 88 | 6.0 | 16.0 | 0.00 | 0.00 | 0.00 | 67 | 1014.0 |
| 20260905204013 | 83 | 83 | 9.0 | 18.0 | 0.00 | 0.00 | 0.00 | 67 | 1014.2 |
| 20260905203512 | 83 | 56 | 10.0 | 18.0 | 0.00 | 0.00 | 0.00 | 66 | 1014.3 |
| 20260905203012 | 83 | 74 | 9.0 | 13.0 | 0.00 | 0.00 | 0.00 | 67 | 1014.3 |
| 20260905202511 | 82 | 63 | 7.0 | 18.0 | 0.00 | 0.00 | 0.00 | 68 | 1014.3 |
| 20260905202013 | 82 | 157 | 10.0 | 19.0 | 0.00 | 0.00 | 0.00 | 69 | 1014.4 |
| 20260905201512 | 82 | 100 | 11.0 | 19.0 | 0.00 | 0.00 | 0.00 | 69 | 1014.7 |
| 20260905201011 | 81 | 105 | 10.0 | 19.0 | 0.00 | 0.00 | 0.00 | 69 | 1014.7 |
| 20260905200511 | 82 | 77 | 10.0 | 17.0 | 0.00 | 0.00 | 0.00 | 69 | 1014.9 |
| 20260905200010 | 82 | 97 | 7.0 | 18.0 | 0.00 | 0.00 | 0.00 | 69 | 1015.0 |
| 20260905195511 | 81 | 112 | 11.0 | 18.0 | 0.00 | 0.00 | 0.00 | 70 | 1015.0 |
| 20260905195011 | 81 | 94 | 9.0 | 17.0 | 0.00 | 0.00 | 0.00 | 70 | 1014.9 |
| 20260905194510 | 81 | 85 | 11.0 | 20.0 | 0.00 | 0.00 | 0.00 | 69 | 1014.9 |
| 20260905194010 | 81 | 40 | 7.0 | 15.0 | 0.00 | 0.00 | 0.00 | 70 | 1015.2 |
| 20260905193509 | 81 | 78 | 8.0 | 19.0 | 0.00 | 0.00 | 0.00 | 70 | 1015.2 |
| 20260905193009 | 80 | 79 | 11.0 | 19.0 | 0.00 | 0.00 | 0.00 | 71 | 1015.3 |
| 20260905192509 | 80 | 91 | 10.0 | 19.0 | 0.00 | 0.00 | 0.00 | 71 | 1015.4 |
| 20260905192009 | 80 | 77 | 8.0 | 17.0 | 0.00 | 0.00 | 0.00 | 71 | 1015.5 |
| 20260905191509 | 80 | 61 | 8.0 | 16.0 | 0.00 | 0.00 | 0.00 | 71 | 1015.4 |
| 20260905191009 | 80 | 61 | 9.0 | 18.0 | 0.00 | 0.00 | 0.00 | 72 | 1015.5 |
| 20260905190508 | 79 | 69 | 9.0 | 21.0 | 0.00 | 0.00 | 0.00 | 72 | 1015.7 |
| 20260905190009 | 78 | 36 | 9.0 | 21.0 | 0.00 | 0.00 | 0.00 | 73 | 1015.8 |
| 20260905185507 | 79 | 54 | 8.0 | 18.0 | 0.00 | 0.00 | 0.00 | 73 | 1016.0 |
| 20260905185010 | 78 | 59 | 9.0 | 18.0 | 0.00 | 0.00 | 0.00 | 73 | 1016.2 |
| 20260905184510 | 78 | 15 | 8.0 | 17.0 | 0.00 | 0.00 | 0.00 | 73 | 1016.2 |
| 20260905184006 | 78 | 59 | 7.0 | 17.0 | 0.00 | 0.00 | 0.00 | 73 | 1016.3 |
| 20260905183506 | 78 | 110 | 8.0 | 17.0 | 0.00 | 0.00 | 0.00 | 73 | 1016.3 |
| 20260905183007 | 78 | 42 | 10.0 | 22.0 | 0.00 | 0.00 | 0.00 | 72 | 1016.4 |
| 20260905182506 | 79 | 13 | 9.0 | 22.0 | 0.00 | 0.00 | 0.00 | 72 | 1016.4 |
| 20260905182008 | 79 | 29 | 9.0 | 18.0 | 0.00 | 0.00 | 0.00 | 72 | 1016.4 |
| 20260905181505 | 80 | 13 | 11.0 | 18.0 | 0.00 | 0.00 | 0.00 | 72 | 1016.3 |
| 20260905181007 | 80 | 30 | 11.0 | 18.0 | 0.00 | 0.00 | 0.00 | 70 | 1016.3 |
| 20260905180506 | 82 | 344 | 6.0 | 17.0 | 0.00 | 0.00 | 0.00 | 70 | 1016.3 |
| 20260905180004 | 82 | 34 | 8.0 | 19.0 | 0.00 | 0.00 | 0.00 | 68 | 1016.4 |
| 20260905175504 | 83 | 5 | 8.0 | 19.0 | 0.00 | 0.00 | 0.00 | 67 | 1016.3 |
| 20260905175003 | 84 | 30 | 8.0 | 12.0 | 0.00 | 0.00 | 0.00 | 66 | 1016.4 |
| 20260905174508 | 84 | 327 | 5.0 | 11.0 | 0.00 | 0.00 | 0.00 | 67 | 1016.5 |
| 20260905174002 | 84 | 115 | 3.0 | 10.0 | 0.00 | 0.00 | 0.00 | 66 | 1016.6 |
| 20260905173501 | 84 | 27 | 3.0 | 10.0 | 0.00 | 0.00 | 0.00 | 66 | 1016.4 |
| 20260905173101 | 84 | 337 | 4.0 | 10.0 | 0.00 | 0.00 | 0.00 | 67 | 1016.6 |
| 20260905172559 | 84 | 17 | 2.0 | 9.0 | 0.00 | 0.00 | 0.00 | 68 | 1016.5 |
| 20260905172059 | 84 | 321 | 3.0 | 8.0 | 0.00 | 0.00 | 0.00 | 67 | 1016.4 |